TimeCST,TemperatureF,Dew PointF,Humidity,Sea Level PressureIn,VisibilityMPH,Wind Direction,Wind SpeedMPH,Gust SpeedMPH,PrecipitationIn,Events,Conditions,WindDirDegrees,DateUTC
12:53 AM,60.1,57.9,93,30.01,10.0,Calm,Calm,-,N/A,,Clear,0,2012-12-09 06:53:00
1:53 AM,57.9,57.0,97,30.01,1.5,Calm,Calm,-,N/A,,Clear,0,2012-12-09 07:53:00
2:09 AM,57.2,57.2,100,30.00,2.5,Calm,Calm,-,N/A,,Clear,0,2012-12-09 08:09:00
2:21 AM,59.0,57.2,94,30.00,4.0,Calm,Calm,-,N/A,,Clear,0,2012-12-09 08:21:00
2:45 AM,57.2,57.2,100,30.00,1.5,Calm,Calm,-,0.01,,Clear,0,2012-12-09 08:45:00
2:53 AM,57.9,57.0,97,30.01,1.0,Calm,Calm,-,0.01,,Clear,0,2012-12-09 08:53:00
3:06 AM,57.2,57.2,100,30.00,2.5,Calm,Calm,-,N/A,,Clear,0,2012-12-09 09:06:00
3:14 AM,59.0,57.2,94,30.00,4.0,Calm,Calm,-,N/A,,Clear,0,2012-12-09 09:14:00
3:53 AM,57.0,55.9,96,30.01,8.0,Calm,Calm,-,N/A,,Clear,0,2012-12-09 09:53:00
4:13 AM,57.2,55.4,94,30.00,2.0,Calm,Calm,-,N/A,,Clear,0,2012-12-09 10:13:00
4:22 AM,57.2,55.4,94,30.01,8.0,Calm,Calm,-,N/A,,Clear,0,2012-12-09 10:22:00
4:50 AM,57.2,55.4,94,30.02,1.8,Calm,Calm,-,N/A,,Clear,0,2012-12-09 10:50:00
4:53 AM,57.9,55.9,93,30.03,1.2,Calm,Calm,-,N/A,,Clear,0,2012-12-09 10:53:00
5:23 AM,57.2,57.2,100,30.02,1.2,Calm,Calm,-,N/A,,Partly Cloudy,0,2012-12-09 11:23:00
5:28 AM,57.2,57.2,100,30.03,3.0,ENE,4.6,-,N/A,,Clear,60,2012-12-09 11:28:00
5:43 AM,57.2,57.2,100,30.03,2.0,ENE,3.5,-,N/A,,Scattered Clouds,60,2012-12-09 11:43:00
5:45 AM,57.2,57.2,100,30.03,1.0,ENE,3.5,-,N/A,,Mist,60,2012-12-09 11:45:00
5:53 AM,57.9,57.0,97,30.04,0.2,Calm,Calm,-,N/A,Fog,Fog,0,2012-12-09 11:53:00
6:05 AM,57.2,57.2,100,30.03,0.2,East,3.5,-,N/A,Fog,Fog,90,2012-12-09 12:05:00
6:16 AM,57.2,57.2,100,30.04,0.2,East,3.5,-,N/A,Fog,Fog,90,2012-12-09 12:16:00
6:53 AM,57.9,57.0,97,30.06,0.2,Calm,Calm,-,N/A,Fog,Fog,0,2012-12-09 12:53:00
7:53 AM,61.0,60.1,97,30.07,0.2,Calm,Calm,-,N/A,Fog,Fog,0,2012-12-09 13:53:00
8:45 AM,62.6,62.6,100,30.07,0.2,East,3.5,-,N/A,Fog,Fog,80,2012-12-09 14:45:00
8:53 AM,63.0,62.1,97,30.08,0.2,East,3.5,-,N/A,Fog,Fog,100,2012-12-09 14:53:00
9:09 AM,62.6,62.6,100,30.08,0.2,East,4.6,-,N/A,Fog,Fog,90,2012-12-09 15:09:00
9:36 AM,64.4,62.6,94,30.08,0.2,Calm,Calm,-,N/A,Fog,Fog,0,2012-12-09 15:36:00
9:49 AM,64.4,62.6,94,30.08,0.8,Calm,Calm,-,N/A,,Overcast,0,2012-12-09 15:49:00
9:53 AM,64.9,64.0,97,30.09,1.2,Calm,Calm,-,N/A,,Overcast,0,2012-12-09 15:53:00
9:56 AM,64.4,64.4,100,30.08,3.0,ESE,3.5,-,N/A,,Overcast,110,2012-12-09 15:56:00
10:11 AM,66.2,64.4,94,30.08,10.0,East,3.5,-,N/A,,Mostly Cloudy,90,2012-12-09 16:11:00
10:53 AM,72.0,64.0,76,30.07,10.0,SE,6.9,-,N/A,,Partly Cloudy,130,2012-12-09 16:53:00
11:53 AM,75.0,64.0,69,30.04,10.0,SSE,9.2,-,N/A,,Scattered Clouds,160,2012-12-09 17:53:00
12:53 PM,73.9,64.0,71,30.02,10.0,South,12.7,-,N/A,,Scattered Clouds,180,2012-12-09 18:53:00
1:53 PM,75.9,64.0,67,30.01,10.0,SSE,10.4,-,N/A,,Overcast,160,2012-12-09 19:53:00
2:53 PM,73.9,64.9,73,30.00,10.0,SSE,10.4,-,N/A,,Overcast,150,2012-12-09 20:53:00
3:24 PM,71.6,64.4,78,30.00,10.0,South,6.9,-,N/A,,Overcast,170,2012-12-09 21:24:00
3:53 PM,72.0,64.9,78,30.00,10.0,SSE,6.9,-,N/A,,Overcast,160,2012-12-09 21:53:00
4:10 PM,71.6,64.4,78,29.99,10.0,SSE,10.4,-,N/A,,Overcast,150,2012-12-09 22:10:00
4:53 PM,71.1,66.0,84,30.00,10.0,SE,6.9,-,N/A,,Mostly Cloudy,140,2012-12-09 22:53:00
5:35 PM,69.8,66.2,88,29.99,10.0,SSE,6.9,-,N/A,,Scattered Clouds,150,2012-12-09 23:35:00
5:53 PM,69.1,66.0,90,30.00,10.0,SSE,6.9,-,N/A,,Clear,150,2012-12-09 23:53:00
6:40 PM,69.8,66.2,88,29.99,10.0,SSE,5.8,-,N/A,,Mostly Cloudy,160,2012-12-10 00:40:00
6:53 PM,69.1,66.0,90,29.99,10.0,SSE,6.9,-,N/A,,Scattered Clouds,160,2012-12-10 00:53:00
7:23 PM,69.8,66.2,88,29.99,10.0,South,8.1,-,N/A,,Mostly Cloudy,170,2012-12-10 01:23:00
7:53 PM,69.1,66.0,90,30.00,10.0,South,6.9,-,N/A,,Mostly Cloudy,170,2012-12-10 01:53:00
8:53 PM,69.1,66.0,90,30.00,10.0,South,8.1,-,N/A,,Partly Cloudy,170,2012-12-10 02:53:00
9:45 PM,69.8,66.2,88,29.98,10.0,South,10.4,-,N/A,,Mostly Cloudy,170,2012-12-10 03:45:00
9:53 PM,70.0,66.0,87,29.99,10.0,South,10.4,-,N/A,,Scattered Clouds,170,2012-12-10 03:53:00
10:53 PM,70.0,64.9,84,29.97,10.0,South,11.5,-,N/A,,Partly Cloudy,170,2012-12-10 04:53:00
11:53 PM,69.1,64.9,87,29.95,10.0,South,8.1,-,N/A,,Clear,180,2012-12-10 05:53:00